Location: Guadanolo
(41.9167°N, 12.9333°E)
Time: 14:32:34
(UTC+00:00)

Cosmos 1842 - Pass Details

Date: 16 September 2019
Orbit: 522 x 538 km, 82.5° (Epoch: 19 October)

Event Time Altitude Azimuth Distance (km) Brightness Sun altitude
Rises 17:52:44 0° 357° (N) 2,703 7.0 -7.5°
Reaches altitude 10° 17:54:57 10° 2° (N) 1,806 6.1 -7.9°
Maximum altitude 17:58:50 51° 79° (E) 682 3.4 -8.6°
Drops below altitude 10° 18:02:39 10° 156° (SSE) 1,786 5.6 -9.3°
Sets 18:04:50 0° 162° (SSE) 2,670 6.5 -9.7°
